Regional Weather Roundup
Issued by NWS Midland/Odessa, TX

Skip options and go directly to product.
Home | Oldest Version | Previous Version | Current Version | All | Graphics & Text | Save Text | Print | Product List | Glossary On

Skip product version selection by date and time.   
744
ASUS44 KMAF 211310
RWRMAF
MIDLAND AREA WEATHER ROUNDUP
NATIONAL WEATHER SERVICE MIDLAND TX
800 AM CDT TUE OCT 21 2014

...IN SOUTHWEST TEXAS AND SOUTHEAST NEW MEXICO...

CITY           SKY/WX    TMP DP  RH WIND       PRES   REMARKS
ALPINE         CLOUDY    54  53  97 SE6       30.17F
ANDREWS        MOCLDY    53  50  89 E3        30.12S
ARTESIA        NOT AVBL
BIG SPRING     PTCLDY    59  54  84 CALM      30.13R
CARLSBAD       CLOUDY    61  59  93 NW5       30.08R FOG
DRYDEN           N/A     65  62  90 E13       30.04R
FORT STOCKTON  CLOUDY    62  61  96 E9        30.09R
GUAD PASS      FOG       54  53  97 NE18      30.16R VSB 1/2
HOBBS          MOCLDY    55  55 100 E5        30.12S
MARFA          CLOUDY    52  52 100 NE3       30.13R
MIDLAND AIRPK  MOCLDY    59  53  80 NE5       30.12R
MIDLAND INTL   PTCLDY    59  54  83 E5        30.10R
ODESSA         CLOUDY    61  54  77 SE7       30.11R
PECOS          CLOUDY    60  58  94 CALM      30.07R
PRESIDIO       DRIZZLE   63  61  93 NW3       30.04R
SEMINOLE       PTCLDY    50  48  90 CALM      30.13S
SNYDER         CLEAR     57  53  87 S3        30.12R
WINK           CLOUDY    62  59  90 E10       30.06S
$$
...OTHER STATIONS IN TEXAS...

CITY           SKY/WX    TMP DP  RH WIND       PRES   REMARKS
ABILENE        CLEAR     60  54  80 CALM      30.10R
AMARILLO       CLEAR     50  48  93 S7        30.14R
AUSTIN         CLEAR     54  54 100 CALM      30.06R
BROWNSVILLE    CLEAR     72  69  90 N3        29.92R
CORPUS CHRISTI PTCLDY    70  68  93 NE12      29.98R
DALLAS FTW     PTCLDY    60  56  86 CALM      30.08R
DEL RIO        CLOUDY    68  61  78 E5        30.04R
EL PASO        PTCLDY    57  54  89 N6        30.07S
HOUSTON INT    PTCLDY    58  54  86 VRB5      30.04R
LUBBOCK        PTCLDY    49  46  90 N5        30.13R
SAN ANGELO     CLEAR     55  51  86 CALM      30.09R
SAN ANTONIO    PTCLDY    62  58  86 NW3       30.06R
WACO           CLEAR     57  55  93 CALM      30.09R FOG
WICHITA FALLS  NOT AVBL
$$
...OTHER LOCATIONS IN NEW MEXICO...

CITY           SKY/WX    TMP DP  RH WIND       PRES   REMARKS
ALAMAGORDO     NOT AVBL
ALBUQUERQUE    CLOUDY    54  46  74 N7        30.15S
CANNON AFB     CLEAR     49  47  92 N5        30.15R
CLOVIS         NOT AVBL
HOLLOMAN AFB   MOCLDY    54  54 100 CALM      30.08S
ROSWELL        CLOUDY    57  55  93 N3        30.11F
RUIDOSO        PTCLDY    41  41 100 SW5       30.23R WCI  38
SANTA FE       CLOUDY    48  45  89 NE6       30.19S
TRUTH OR CONSE PTCLDY    52  50  93 N5        30.12R
TUCUMCARI      CLEAR     48  44  86 CALM      30.12S
$$

USA.gov is the U.S. government's official web portal to all federal, state and local government web resources and services.